Tracking 29892 objects as of 21-Nov-2024
HD Live streaming from Space Station
objects crossing your sky now

STARLINK-2217

Track STARLINK-2217 now!
10-day predictions
STARLINK-2217 is classified as:


NORAD ID: 48568
Int'l Code: 2021-041R
Perigee: 553.4 km
Apogee: 555.2 km
Inclination: 53.1 °
Period: 95.6 minutes
Semi major axis: 6925 km
RCS: Unknown
Launch date: May 15, 2021
Source: United States (US)
Launch site: AIR FORCE EASTERN TEST RANGE (AFETR)
Your satellite tracking list
Your tracking list is empty




NASA's NSSDC Master Catalog

Two Line Element Set (TLE):
1 48568U 21041R   24325.75533971  .00001263  00000-0  10366-3 0  9996
2 48568  53.0526  99.1890 0001260  87.6165 272.4968 15.06410869193766
Source of the keplerian elements: AFSPC